University Park, PA

8:16 AM EST on February 09, 2016 (GMT -0500)
University Park

Weather History for KUNV - February, 2014

Change the Weather History Date:

Saturday, February 8, 2014

  Actual Average Record
Temperature  
Mean Temperature 16 °F -  
Max Temperature 24 °F 31 °F 55 °F (1928)
Min Temperature 9 °F 15 °F -6 °F (1936)
Degree Days  
Heating Degree Days 48    
Moisture  
Dew Point -2 °F    
Average Humidity 46    
Maximum Humidity 58    
Minimum Humidity 28    
Precipitation  
Precipitation 0.00 in - - ()
Sea Level Pressure  
Sea Level Pressure 30.23 in    
Wind  
Wind Speed 5 mph (SW)    
Max Wind Speed 8 mph    
Max Gust Speed -    
Visibility 10 miles    
Events Snow    
Averages and records for this station are not official NWS values.
T = Trace of Precipitation, MM = Missing Value Source: NWS Daily Summary

Daily Weather History Graph

Daily Weather History Graph

Search for Another Location

Airport or City:

Trip Planner

Search our weather history database for the weather conditions in past years. The results will help you decide how hot, cold, wet, or windy it might be!

Date:

Astronomy

Feb. 08, 2014 Rise Set
Actual Time 7:14 AM EST 5:37 PM EST
Civil Twilight 6:45 AM EST 6:06 PM EST
Nautical Twilight 6:13 AM EST 6:38 PM EST
Astronomical Twilight 5:41 AM EST 7:10 PM EST
Moon 12:29 PM EST (2/8) 2:25 AM EST (2/8)
Length of Visible Light 11h 20m
Length of Day
10h 23m
Waxing Gibbous, 68% of the Moon is Illuminated
Feb 8
Waxing Gibbous
Feb 14
Full
Feb 22
Last Quarter
Mar 1
New
Mar 8
First Quarter

Hourly Weather History & Observations

Time (EST) Temp. Windchill Dew Point Humidity Pressure Visibility Wind Dir Wind Speed Gust Speed Precip Events Conditions
12:15 AM 14.9 °F 6.1 °F -4.4 °F 42% 30.26 in 10.0 mi West 5.8 mph - N/A   Scattered Clouds
12:35 AM 14.9 °F 5.0 °F -4.5 °F 42% 30.27 in 10.0 mi West 6.9 mph - N/A   Scattered Clouds
12:55 AM 14.5 °F 8.8 °F -4.7 °F 42% 30.27 in 10.0 mi SW 3.5 mph - N/A   Clear
1:15 AM 13.3 °F 5.6 °F -4.5 °F 45% 30.28 in 10.0 mi SSW 4.6 mph - N/A   Clear
1:35 AM 14.4 °F 6.9 °F -5.1 °F 42% 30.27 in 10.0 mi WSW 4.6 mph - N/A   Clear
1:55 AM 14.2 °F 5.3 °F -5.6 °F 41% 30.27 in 10.0 mi SW 5.8 mph - N/A   Clear
2:15 AM 14.7 °F 3.8 °F -5.8 °F 40% 30.28 in 10.0 mi WSW 8.1 mph - N/A   Clear
2:35 AM 14.0 °F 2.9 °F -5.8 °F 41% 30.28 in 10.0 mi SW 8.1 mph - N/A   Clear
2:55 AM 14.0 °F 3.9 °F -5.4 °F 42% 30.28 in 10.0 mi WSW 6.9 mph - N/A   Clear
3:15 AM 13.1 °F 2.8 °F -5.1 °F 44% 30.29 in 10.0 mi SW 6.9 mph - N/A   Clear
3:35 AM 13.6 °F 3.5 °F -4.0 °F 45% 30.29 in 10.0 mi WSW 6.9 mph - N/A   Clear
3:55 AM 11.1 °F 1.7 °F -4.4 °F 50% 30.29 in 10.0 mi SW 5.8 mph - N/A   Clear
4:15 AM 11.3 °F 1.9 °F -4.2 °F 50% 30.28 in 10.0 mi SW 5.8 mph - N/A   Clear
4:35 AM 9.7 °F - -5.1 °F 51% 30.28 in 10.0 mi Calm Calm - N/A   Clear
4:55 AM 11.7 °F - -3.6 °F 50% 30.28 in 10.0 mi Calm Calm - N/A   Clear
5:15 AM 10.2 °F - -4.9 °F 51% 30.28 in 10.0 mi Calm Calm - N/A   Clear
5:35 AM 12.0 °F 2.7 °F -4.7 °F 47% 30.28 in 10.0 mi West 5.8 mph - N/A   Clear
5:53 AM 10.4 °F 2.2 °F -5.8 °F 48% 30.28 in 10.0 mi WNW 4.6 mph - N/A   Clear
6:53 AM 12.2 °F 4.3 °F -7.6 °F 41% 30.27 in 10.0 mi West 4.6 mph - N/A   Clear
7:53 AM 12.2 °F 4.3 °F -7.6 °F 41% 30.28 in 10.0 mi West 4.6 mph - N/A   Clear
8:53 AM 10.4 °F 2.2 °F -4.0 °F 52% 30.28 in 10.0 mi West 4.6 mph - N/A   Scattered Clouds
9:53 AM 14.0 °F - -5.8 °F 41% 30.27 in 10.0 mi Calm Calm - N/A   Mostly Cloudy
10:53 AM 17.6 °F 9.3 °F -9.4 °F 30% 30.26 in 10.0 mi SW 5.8 mph - N/A   Scattered Clouds
11:53 AM 21.2 °F 13.6 °F -7.6 °F 28% 30.24 in 10.0 mi SW 5.8 mph - N/A   Mostly Cloudy
12:53 PM 23.0 °F 15.8 °F -5.8 °F 28% 30.20 in 10.0 mi SSW 5.8 mph - N/A   Mostly Cloudy
1:53 PM 23.0 °F 15.8 °F -0.4 °F 36% 30.18 in 10.0 mi South 5.8 mph - N/A   Overcast
2:53 PM 23.0 °F 15.8 °F 3.2 °F 43% 30.18 in 10.0 mi South 5.8 mph - N/A   Overcast
2:57 PM 23.0 °F 15.8 °F 3.2 °F 43% 30.18 in 7.0 mi South 5.8 mph - N/A Snow Light Snow
3:50 PM 24.8 °F 17.9 °F 8.6 °F 50% 30.18 in 7.0 mi South 5.8 mph - N/A Snow Light Snow
4:50 PM 23.0 °F 15.8 °F 8.6 °F 54% 30.17 in 10.0 mi WSW 5.8 mph - N/A   Overcast
5:53 PM 23.0 °F - 5.0 °F 46% 30.14 in 10.0 mi Calm Calm - N/A   Mostly Cloudy
6:53 PM 23.0 °F - 3.2 °F 43% 30.15 in 10.0 mi Calm Calm - N/A   Overcast
7:53 PM 21.2 °F 12.6 °F 3.2 °F 46% 30.14 in 10.0 mi West 6.9 mph - N/A   Scattered Clouds
8:53 PM 19.4 °F 12.8 °F 3.2 °F 49% 30.14 in 10.0 mi West 4.6 mph - N/A   Clear
9:55 PM 18.5 °F 13.3 °F 4.6 °F 55% 30.14 in 10.0 mi WSW 3.5 mph - N/A   Clear
10:15 PM 18.0 °F 12.7 °F 4.5 °F 56% 30.14 in 10.0 mi West 3.5 mph - N/A   Clear
10:35 PM 17.2 °F - 4.3 °F 57% 30.14 in 10.0 mi Calm Calm - N/A   Clear
10:55 PM 17.1 °F - 4.1 °F 57% 30.14 in 10.0 mi Calm Calm - N/A   Clear
11:15 PM 17.6 °F - 4.6 °F 57% 30.14 in 10.0 mi Calm Calm - N/A   Mostly Cloudy
11:35 PM 17.6 °F - 4.1 °F 56% 30.14 in 10.0 mi Calm Calm - N/A   Overcast
11:55 PM 16.7 °F - 4.3 °F 58% 30.14 in 10.0 mi Calm Calm - N/A   Overcast